BAW506A EGLL-LPPT

Flight info

Callsign BAW506A
Flight time 2h 24m
Altitude 35000
Route GASGU N866 SAM M195 LORKU DCT POZOF DCT BALDA DCT ABUPI DCT XAMAX
Aircraft A320/M-SDE3FGIKRWXY/S

Departure

Time 2026-05-07 16:42
Airport London Heathrow Airport (EGLL)

Arrival

Time 2026-05-07 19:07
Airport Lisbon Humberto Delgado Airport (LPPT)
Time Latitude Longitude Altitude Speed Heading
2026-05-07 16:25 51.46930 -0.48787 86 ft 0 kts 360°
2026-05-07 16:32 51.46920 -0.48787 86 ft 4 kts 360°
2026-05-07 16:32 51.46898 -0.48787 88 ft 1 kts 360°
2026-05-07 16:33 51.46881 -0.48788 86 ft 4 kts 47°
2026-05-07 16:33 51.46876 -0.48805 88 ft 3 kts 90°
2026-05-07 16:33 51.46876 -0.48777 86 ft 0 kts 90°
2026-05-07 16:34 51.46876 -0.48795 86 ft 2 kts 90°
2026-05-07 16:34 51.46876 -0.48821 86 ft 2 kts 90°
2026-05-07 16:34 51.46876 -0.48829 89 ft 0 kts 90°
2026-05-07 16:38 51.46876 -0.48828 86 ft 1 kts 90°
2026-05-07 16:39 51.46876 -0.48811 86 ft 2 kts 90°
2026-05-07 16:39 51.46873 -0.48776 86 ft 4 kts 109°
2026-05-07 16:39 51.46848 -0.48750 86 ft 5 kts 169°
2026-05-07 16:39 51.46806 -0.48750 86 ft 7 kts 180°
2026-05-07 16:40 51.46753 -0.48749 86 ft 8 kts 179°
2026-05-07 16:40 51.46688 -0.48749 88 ft 10 kts 179°
2026-05-07 16:40 51.46612 -0.48763 90 ft 12 kts 195°
2026-05-07 16:40 51.46525 -0.48781 89 ft 14 kts 165°
2026-05-07 16:41 51.46478 -0.48672 88 ft 10 kts 90°
2026-05-07 16:41 51.46478 -0.48642 86 ft 0 kts 90°
2026-05-07 16:41 51.46478 -0.48592 89 ft 24 kts 89°
2026-05-07 16:41 51.46479 -0.47950 90 ft 89 kts 90°
2026-05-07 16:42 51.46484 -0.46672 89 ft 138 kts 90°
2026-05-07 16:42 51.46495 -0.44904 239 ft 164 kts 91°
2026-05-07 16:42 51.46527 -0.43060 813 ft 166 kts 90°
2026-05-07 16:42 51.46359 -0.41270 1369 ft 169 kts 117°
2026-05-07 16:43 51.45669 -0.39595 1633 ft 189 kts 125°
2026-05-07 16:43 51.44869 -0.37787 1833 ft 214 kts 125°
2026-05-07 16:43 51.43959 -0.35741 2172 ft 237 kts 126°
2026-05-07 16:43 51.42725 -0.33867 2737 ft 252 kts 149°
2026-05-07 16:44 51.41073 -0.32874 3485 ft 258 kts 171°
2026-05-07 16:44 51.39273 -0.33025 4242 ft 263 kts 195°
2026-05-07 16:44 51.37645 -0.34371 5032 ft 267 kts 220°
2026-05-07 16:44 51.36255 -0.36377 5744 ft 272 kts 222°
2026-05-07 16:45 51.34859 -0.38419 6184 ft 272 kts 222°
2026-05-07 16:45 51.33462 -0.40458 7013 ft 272 kts 222°
2026-05-07 16:45 51.32056 -0.42506 7771 ft 275 kts 223°
2026-05-07 16:45 51.30734 -0.44732 8501 ft 278 kts 237°
2026-05-07 16:46 51.29969 -0.47569 9207 ft 281 kts 254°
2026-05-07 16:46 51.29438 -0.50589 9921 ft 283 kts 254°
2026-05-07 16:46 51.28881 -0.53714 10339 ft 299 kts 253°
2026-05-07 16:46 51.28287 -0.57023 10478 ft 321 kts 253°
2026-05-07 16:47 51.27637 -0.60505 10606 ft 341 kts 252°
2026-05-07 16:47 51.26915 -0.64225 10785 ft 359 kts 252°
2026-05-07 16:47 51.26167 -0.68025 11245 ft 366 kts 252°
2026-05-07 16:47 51.25392 -0.71949 11809 ft 369 kts 251°
2026-05-07 16:48 51.24621 -0.75875 12381 ft 373 kts 251°
2026-05-07 16:48 51.23843 -0.79841 12963 ft 375 kts 251°
2026-05-07 16:48 51.23059 -0.83829 13561 ft 378 kts 251°
2026-05-07 16:48 51.22269 -0.87836 14148 ft 380 kts 251°
2026-05-07 16:49 51.21444 -0.91849 14736 ft 381 kts 248°
2026-05-07 16:49 51.20265 -0.95643 15263 ft 383 kts 237°
2026-05-07 16:49 51.18657 -0.99038 15802 ft 385 kts 227°
2026-05-07 16:49 51.16746 -1.02033 16346 ft 387 kts 223°
2026-05-07 16:50 51.14802 -1.05016 16892 ft 389 kts 224°
2026-05-07 16:50 51.12849 -1.08020 17432 ft 392 kts 224°
2026-05-07 16:50 51.10881 -1.11043 17942 ft 394 kts 224°
2026-05-07 16:50 51.08905 -1.14080 18469 ft 396 kts 224°
2026-05-07 16:51 51.06912 -1.17137 18950 ft 399 kts 224°
2026-05-07 16:51 51.04909 -1.20208 19415 ft 402 kts 224°
2026-05-07 16:51 51.02888 -1.23303 19879 ft 405 kts 224°
2026-05-07 16:51 51.00855 -1.26407 20329 ft 407 kts 224°
2026-05-07 16:52 50.98803 -1.29527 20747 ft 409 kts 224°
2026-05-07 16:52 50.96738 -1.32658 21139 ft 412 kts 223°
2026-05-07 16:52 50.94527 -1.35553 21511 ft 414 kts 215°
2026-05-07 16:52 50.92115 -1.38081 21868 ft 417 kts 213°
2026-05-07 16:53 50.89684 -1.40608 22205 ft 419 kts 213°
2026-05-07 16:53 50.87240 -1.43146 22549 ft 421 kts 213°
2026-05-07 16:53 50.84788 -1.45696 22892 ft 423 kts 213°
2026-05-07 16:53 50.82326 -1.48253 23213 ft 424 kts 213°
2026-05-07 16:54 50.79853 -1.50818 23511 ft 426 kts 213°
2026-05-07 16:54 50.77368 -1.53391 23820 ft 428 kts 213°
2026-05-07 16:54 50.74865 -1.55977 24117 ft 430 kts 213°
2026-05-07 16:54 50.72355 -1.58566 24406 ft 432 kts 213°
2026-05-07 16:55 50.69836 -1.61159 24765 ft 432 kts 213°
2026-05-07 16:55 50.67321 -1.63748 25186 ft 431 kts 213°
2026-05-07 16:55 50.64817 -1.66327 25621 ft 429 kts 213°
2026-05-07 16:55 50.62322 -1.68895 26047 ft 428 kts 213°
2026-05-07 16:56 50.59831 -1.71453 26470 ft 427 kts 213°
2026-05-07 16:56 50.57347 -1.73994 26886 ft 426 kts 213°
2026-05-07 16:56 50.52382 -1.79068 27681 ft 425 kts 214°
2026-05-07 16:57 50.49909 -1.81593 28100 ft 423 kts 214°
2026-05-07 16:57 50.47443 -1.84108 28495 ft 422 kts 214°
2026-05-07 16:57 50.44979 -1.86618 28892 ft 421 kts 214°
2026-05-07 16:57 50.42526 -1.89117 29271 ft 421 kts 214°
2026-05-07 16:58 50.40105 -1.91581 29648 ft 420 kts 214°
2026-05-07 16:58 50.37655 -1.94066 30031 ft 419 kts 214°
2026-05-07 16:58 50.35209 -1.96536 30403 ft 418 kts 214°
2026-05-07 16:58 50.32734 -1.99031 30796 ft 417 kts 214°
2026-05-07 16:59 50.30334 -2.01455 31182 ft 416 kts 214°
2026-05-07 16:59 50.27909 -2.03900 31586 ft 414 kts 214°
2026-05-07 16:59 50.25491 -2.06339 31959 ft 413 kts 214°
2026-05-07 16:59 50.23080 -2.08766 32332 ft 412 kts 213°
2026-05-07 17:00 50.20662 -2.11156 32706 ft 411 kts 213°
2026-05-07 17:00 50.18243 -2.13512 33062 ft 410 kts 213°
2026-05-07 17:00 50.15825 -2.15853 33397 ft 409 kts 213°
2026-05-07 17:00 50.13412 -2.18184 33728 ft 408 kts 213°
2026-05-07 17:01 50.11004 -2.20511 34060 ft 406 kts 213°
2026-05-07 17:01 50.08607 -2.22832 34362 ft 406 kts 213°
2026-05-07 17:01 50.06209 -2.25152 34628 ft 406 kts 213°
2026-05-07 17:01 50.03813 -2.27467 34877 ft 406 kts 213°
2026-05-07 17:02 50.01410 -2.29790 35004 ft 408 kts 213°
2026-05-07 17:02 49.98985 -2.32132 35028 ft 414 kts 213°
2026-05-07 17:02 49.94010 -2.36874 35027 ft 426 kts 209°
2026-05-07 17:03 49.88595 -2.40756 35026 ft 430 kts 205°
2026-05-07 17:03 49.83139 -2.44568 35027 ft 430 kts 205°
2026-05-07 17:04 49.77685 -2.48390 35025 ft 430 kts 205°
2026-05-07 17:04 49.72271 -2.52169 35028 ft 430 kts 205°
2026-05-07 17:05 49.66811 -2.55959 35027 ft 430 kts 205°
2026-05-07 17:05 49.61343 -2.59730 35025 ft 431 kts 205°
2026-05-07 17:06 49.55874 -2.63501 35024 ft 431 kts 205°
2026-05-07 17:06 49.50402 -2.67275 35022 ft 431 kts 205°
2026-05-07 17:07 49.44921 -2.71028 35023 ft 431 kts 205°
2026-05-07 17:07 49.39438 -2.74784 35020 ft 431 kts 205°
2026-05-07 17:08 49.33955 -2.78530 35022 ft 431 kts 205°
2026-05-07 17:08 49.28467 -2.82267 35016 ft 431 kts 205°
2026-05-07 17:09 49.23912 -2.85365 35017 ft 431 kts 205°
2026-05-07 17:09 49.18437 -2.89089 35015 ft 431 kts 205°
2026-05-07 17:10 49.12958 -2.92799 35013 ft 431 kts 205°
2026-05-07 17:10 49.07477 -2.96491 35011 ft 431 kts 205°
2026-05-07 17:11 49.01992 -3.00185 35005 ft 431 kts 205°
2026-05-07 17:11 48.96514 -3.03875 35006 ft 431 kts 205°
2026-05-07 17:12 48.91030 -3.07559 35008 ft 431 kts 205°
2026-05-07 17:12 48.85539 -3.11228 35006 ft 431 kts 205°
2026-05-07 17:13 48.80045 -3.14884 34998 ft 431 kts 204°
2026-05-07 17:13 48.74560 -3.18534 34998 ft 430 kts 205°
2026-05-07 17:14 48.69071 -3.22188 34998 ft 431 kts 204°
2026-05-07 17:14 48.63575 -3.25828 34995 ft 431 kts 204°
2026-05-07 17:15 48.58077 -3.29458 35001 ft 431 kts 204°
2026-05-07 17:15 48.52577 -3.33085 35005 ft 432 kts 204°
2026-05-07 17:16 48.47072 -3.36709 35008 ft 432 kts 204°
2026-05-07 17:16 48.41568 -3.40323 35001 ft 431 kts 204°
2026-05-07 17:17 48.36069 -3.43926 35003 ft 431 kts 204°
2026-05-07 17:17 48.30567 -3.47522 35006 ft 431 kts 204°
2026-05-07 17:18 48.25065 -3.51106 35008 ft 431 kts 204°
2026-05-07 17:18 48.19558 -3.54687 35009 ft 431 kts 204°
2026-05-07 17:19 48.14056 -3.58258 35009 ft 431 kts 204°
2026-05-07 17:19 48.08559 -3.61809 35010 ft 430 kts 204°
2026-05-07 17:20 48.03062 -3.65348 35013 ft 430 kts 204°
2026-05-07 17:20 47.97569 -3.68888 35008 ft 430 kts 204°
2026-05-07 17:21 47.92113 -3.72397 35013 ft 430 kts 204°
2026-05-07 17:21 47.86620 -3.75930 35015 ft 430 kts 204°
2026-05-07 17:22 47.81120 -3.79451 35010 ft 430 kts 204°
2026-05-07 17:22 47.75620 -3.82954 35014 ft 430 kts 204°
2026-05-07 17:23 47.70113 -3.86456 35008 ft 430 kts 204°
2026-05-07 17:23 47.64608 -3.89952 35017 ft 430 kts 204°
2026-05-07 17:24 47.59107 -3.93439 35017 ft 430 kts 204°
2026-05-07 17:24 47.53607 -3.96920 35019 ft 430 kts 204°
2026-05-07 17:25 47.48102 -4.00396 35019 ft 430 kts 204°
2026-05-07 17:25 47.42591 -4.03858 35016 ft 430 kts 204°
2026-05-07 17:26 47.37081 -4.07311 35014 ft 431 kts 204°
2026-05-07 17:26 47.31595 -4.10746 35019 ft 431 kts 204°
2026-05-07 17:27 47.26077 -4.14188 35021 ft 431 kts 204°
2026-05-07 17:27 47.20565 -4.17626 35020 ft 430 kts 204°
2026-05-07 17:28 47.15058 -4.21053 35026 ft 430 kts 204°
2026-05-07 17:28 47.09543 -4.24482 35022 ft 430 kts 204°
2026-05-07 17:29 47.04024 -4.27853 35022 ft 430 kts 202°
2026-05-07 17:29 46.98430 -4.30941 35015 ft 429 kts 201°
2026-05-07 17:30 46.92816 -4.33925 35022 ft 429 kts 201°
2026-05-07 17:30 46.87213 -4.36944 35011 ft 429 kts 201°
2026-05-07 17:31 46.81629 -4.39993 35011 ft 429 kts 201°
2026-05-07 17:31 46.76043 -4.43048 35013 ft 429 kts 201°
2026-05-07 17:32 46.70457 -4.46101 35001 ft 429 kts 201°
2026-05-07 17:32 46.64871 -4.49129 35007 ft 428 kts 201°
2026-05-07 17:33 46.59281 -4.52138 34999 ft 428 kts 201°
2026-05-07 17:33 46.53693 -4.55157 35002 ft 428 kts 201°
2026-05-07 17:34 46.48109 -4.58167 34985 ft 429 kts 201°
2026-05-07 17:34 46.42520 -4.61178 34988 ft 428 kts 201°
2026-05-07 17:35 46.36929 -4.64174 34986 ft 428 kts 201°
2026-05-07 17:35 46.31343 -4.67152 34981 ft 427 kts 201°
2026-05-07 17:36 46.25762 -4.70129 34975 ft 428 kts 201°
2026-05-07 17:36 46.20178 -4.73107 34974 ft 428 kts 201°
2026-05-07 17:37 46.14593 -4.76083 34973 ft 428 kts 201°
2026-05-07 17:37 46.09010 -4.79046 34967 ft 428 kts 201°
2026-05-07 17:38 46.03421 -4.81998 34961 ft 428 kts 201°
2026-05-07 17:38 45.97825 -4.84942 34956 ft 428 kts 201°
2026-05-07 17:39 45.92228 -4.87887 34950 ft 428 kts 201°
2026-05-07 17:39 45.86632 -4.90849 34948 ft 429 kts 201°
2026-05-07 17:40 45.81020 -4.93797 34946 ft 430 kts 201°
2026-05-07 17:40 45.75397 -4.96729 34946 ft 430 kts 201°
2026-05-07 17:41 45.69767 -4.99669 34941 ft 431 kts 201°
2026-05-07 17:41 45.64133 -5.02612 34941 ft 431 kts 201°
2026-05-07 17:42 45.58492 -5.05550 34935 ft 431 kts 201°
2026-05-07 17:42 45.52845 -5.08475 34930 ft 432 kts 201°
2026-05-07 17:43 45.47192 -5.11399 34931 ft 433 kts 201°
2026-05-07 17:43 45.41525 -5.14324 34932 ft 433 kts 201°
2026-05-07 17:44 45.35855 -5.17261 34929 ft 434 kts 201°
2026-05-07 17:44 45.30178 -5.20193 34931 ft 434 kts 201°
2026-05-07 17:45 45.24493 -5.23108 34928 ft 435 kts 201°
2026-05-07 17:45 45.18801 -5.26017 34925 ft 435 kts 201°
2026-05-07 17:46 45.13109 -5.28917 34922 ft 435 kts 201°
2026-05-07 17:46 45.07411 -5.31821 34917 ft 435 kts 201°
2026-05-07 17:47 45.01712 -5.34739 34916 ft 436 kts 201°
2026-05-07 17:47 44.96007 -5.37651 34919 ft 436 kts 201°
2026-05-07 17:48 44.90328 -5.40528 34917 ft 437 kts 201°
2026-05-07 17:48 44.84605 -5.43408 34913 ft 437 kts 201°
2026-05-07 17:49 44.78873 -5.46302 34914 ft 438 kts 201°
2026-05-07 17:49 44.73137 -5.49200 34914 ft 438 kts 201°
2026-05-07 17:50 44.67391 -5.52094 34914 ft 439 kts 201°
2026-05-07 17:50 44.61635 -5.54972 34915 ft 439 kts 201°
2026-05-07 17:51 44.55966 -5.58141 34911 ft 439 kts 205°
2026-05-07 17:51 44.50418 -5.61701 34910 ft 439 kts 206°
2026-05-07 17:52 44.44862 -5.65278 34908 ft 440 kts 206°
2026-05-07 17:52 44.39261 -5.68750 34904 ft 440 kts 205°
2026-05-07 17:53 44.33639 -5.72175 34903 ft 441 kts 205°
2026-05-07 17:53 44.28010 -5.75603 34901 ft 442 kts 205°
2026-05-07 17:54 44.23296 -5.78485 34900 ft 442 kts 205°
2026-05-07 17:54 44.17663 -5.81934 34898 ft 442 kts 205°
2026-05-07 17:55 44.12060 -5.85365 34896 ft 443 kts 205°
2026-05-07 17:55 44.06406 -5.88807 34900 ft 444 kts 205°
2026-05-07 17:56 44.00748 -5.92236 34905 ft 444 kts 205°
2026-05-07 17:56 43.95080 -5.95664 34907 ft 444 kts 205°
2026-05-07 17:57 43.89414 -5.99077 34908 ft 444 kts 205°
2026-05-07 17:57 43.83749 -6.02494 34907 ft 444 kts 205°
2026-05-07 17:58 43.78079 -6.05908 34908 ft 444 kts 205°
2026-05-07 17:58 43.72406 -6.09317 34910 ft 444 kts 205°
2026-05-07 17:59 43.66732 -6.12716 34910 ft 445 kts 205°
2026-05-07 17:59 43.61056 -6.16108 34910 ft 445 kts 205°
2026-05-07 18:00 43.55374 -6.19499 34909 ft 445 kts 205°
2026-05-07 18:00 43.49697 -6.22879 34911 ft 445 kts 205°
2026-05-07 18:01 43.44008 -6.26261 34905 ft 445 kts 205°
2026-05-07 18:01 43.38324 -6.29638 34901 ft 446 kts 206°
2026-05-07 18:02 43.29778 -6.34698 34899 ft 446 kts 206°
2026-05-07 18:03 43.24076 -6.38058 34901 ft 446 kts 206°
2026-05-07 18:03 43.18371 -6.41418 34902 ft 446 kts 206°
2026-05-07 18:04 43.12669 -6.44770 34900 ft 446 kts 206°
2026-05-07 18:04 43.06957 -6.48115 34895 ft 446 kts 206°
2026-05-07 18:05 43.01243 -6.51459 34898 ft 447 kts 206°
2026-05-07 18:05 42.95520 -6.54802 34901 ft 448 kts 206°
2026-05-07 18:06 42.89790 -6.58138 34900 ft 448 kts 208°
2026-05-07 18:06 42.84060 -6.61474 34916 ft 447 kts 209°
2026-05-07 18:07 42.78346 -6.64794 34922 ft 446 kts 209°
2026-05-07 18:07 42.72647 -6.68096 34920 ft 445 kts 209°
2026-05-07 18:08 42.66955 -6.71380 34915 ft 444 kts 209°
2026-05-07 18:08 42.61275 -6.74657 34914 ft 444 kts 209°
2026-05-07 18:09 42.55597 -6.77930 34914 ft 443 kts 210°
2026-05-07 18:09 42.49935 -6.81198 34916 ft 443 kts 210°
2026-05-07 18:10 42.44268 -6.84458 34913 ft 443 kts 210°
2026-05-07 18:10 42.38597 -6.87692 34911 ft 442 kts 210°
2026-05-07 18:11 42.32929 -6.90921 34917 ft 442 kts 210°
2026-05-07 18:11 42.27273 -6.94147 34915 ft 441 kts 210°
2026-05-07 18:12 42.21618 -6.97374 34915 ft 441 kts 210°
2026-05-07 18:12 42.15966 -7.00588 34917 ft 441 kts 210°
2026-05-07 18:13 42.10359 -7.03767 34917 ft 440 kts 210°
2026-05-07 18:13 42.04690 -7.06974 34917 ft 439 kts 210°
2026-05-07 18:14 41.99098 -7.10139 34916 ft 439 kts 210°
2026-05-07 18:14 41.93482 -7.13305 34930 ft 437 kts 210°
2026-05-07 18:15 41.87878 -7.16449 34926 ft 435 kts 211°
2026-05-07 18:15 41.82621 -7.20226 34924 ft 427 kts 217°
2026-05-07 18:16 41.77473 -7.24173 34920 ft 426 kts 217°
2026-05-07 18:16 41.72346 -7.28112 34919 ft 424 kts 217°
2026-05-07 18:17 41.67234 -7.32031 34915 ft 423 kts 217°
2026-05-07 18:17 41.62122 -7.35932 34918 ft 423 kts 217°
2026-05-07 18:18 41.57008 -7.39810 34921 ft 423 kts 217°
2026-05-07 18:18 41.51895 -7.43686 34920 ft 422 kts 217°
2026-05-07 18:19 41.46786 -7.47561 34919 ft 423 kts 217°
2026-05-07 18:19 41.41676 -7.51430 34918 ft 422 kts 217°
2026-05-07 18:20 41.36566 -7.55284 34920 ft 422 kts 217°
2026-05-07 18:20 41.31458 -7.59130 34920 ft 421 kts 217°
2026-05-07 18:21 41.26351 -7.62963 34924 ft 421 kts 217°
2026-05-07 18:21 41.21250 -7.66789 34922 ft 421 kts 217°
2026-05-07 18:22 41.16154 -7.70619 34921 ft 420 kts 217°
2026-05-07 18:22 41.11062 -7.74435 34924 ft 420 kts 217°
2026-05-07 18:23 41.05969 -7.78249 34922 ft 420 kts 217°
2026-05-07 18:23 41.00869 -7.82037 34923 ft 420 kts 217°
2026-05-07 18:24 40.95775 -7.85820 34921 ft 420 kts 217°
2026-05-07 18:24 40.90684 -7.89603 34923 ft 420 kts 216°
2026-05-07 18:25 40.85623 -7.93353 34925 ft 420 kts 216°
2026-05-07 18:25 40.80534 -7.97127 34931 ft 419 kts 216°
2026-05-07 18:26 40.75448 -8.00883 34926 ft 419 kts 216°
2026-05-07 18:26 40.70371 -8.04622 34934 ft 418 kts 216°
2026-05-07 18:27 40.65302 -8.08354 34938 ft 416 kts 216°
2026-05-07 18:27 40.60254 -8.12064 34934 ft 416 kts 216°
2026-05-07 18:28 40.55199 -8.15767 34937 ft 416 kts 216°
2026-05-07 18:28 40.50147 -8.19469 34930 ft 416 kts 216°
2026-05-07 18:29 40.45098 -8.23169 34935 ft 416 kts 216°
2026-05-07 18:29 40.40044 -8.26859 34931 ft 415 kts 216°
2026-05-07 18:30 40.34989 -8.30542 34932 ft 415 kts 215°
2026-05-07 18:30 40.29936 -8.34220 34931 ft 415 kts 216°
2026-05-07 18:30 40.27412 -8.36058 34775 ft 415 kts 215°
2026-05-07 18:31 40.24886 -8.37893 34323 ft 415 kts 215°
2026-05-07 18:31 40.22357 -8.39725 33547 ft 417 kts 215°
2026-05-07 18:31 40.19815 -8.41563 32762 ft 418 kts 215°
2026-05-07 18:31 40.17262 -8.43409 31954 ft 420 kts 214°
2026-05-07 18:32 40.14695 -8.45267 31099 ft 424 kts 214°
2026-05-07 18:32 40.12106 -8.47140 30253 ft 427 kts 214°
2026-05-07 18:32 40.09500 -8.49018 29354 ft 429 kts 213°
2026-05-07 18:32 40.06896 -8.50891 28859 ft 422 kts 213°
2026-05-07 18:33 40.04224 -8.52414 28621 ft 417 kts 202°
2026-05-07 18:33 40.01388 -8.53207 28358 ft 418 kts 191°
2026-05-07 18:33 39.98468 -8.53246 28099 ft 422 kts 181°
2026-05-07 18:33 39.95542 -8.52989 27829 ft 421 kts 181°
2026-05-07 18:34 39.92630 -8.52737 27401 ft 418 kts 181°
2026-05-07 18:34 39.89733 -8.52491 26984 ft 416 kts 181°
2026-05-07 18:34 39.86853 -8.52250 26565 ft 414 kts 181°
2026-05-07 18:34 39.83985 -8.52016 26150 ft 412 kts 181°
2026-05-07 18:35 39.81142 -8.51784 25846 ft 405 kts 180°
2026-05-07 18:35 39.78371 -8.51627 25716 ft 391 kts 187°
2026-05-07 18:35 39.75739 -8.52122 25589 ft 375 kts 199°
2026-05-07 18:35 39.73363 -8.53311 25444 ft 360 kts 211°
2026-05-07 18:36 39.71229 -8.54958 25070 ft 356 kts 214°
2026-05-07 18:36 39.69127 -8.56627 24715 ft 353 kts 214°
2026-05-07 18:36 39.67042 -8.58277 24404 ft 349 kts 214°
2026-05-07 18:36 39.64974 -8.59911 24110 ft 347 kts 214°
2026-05-07 18:37 39.62912 -8.61536 23818 ft 346 kts 213°
2026-05-07 18:37 39.60856 -8.63150 23516 ft 345 kts 213°
2026-05-07 18:37 39.59497 -8.64212 23330 ft 344 kts 213°
2026-05-07 18:37 39.57457 -8.65807 23042 ft 342 kts 213°
2026-05-07 18:38 39.55426 -8.67398 22742 ft 340 kts 213°
2026-05-07 18:38 39.53406 -8.68982 22458 ft 339 kts 213°
2026-05-07 18:38 39.51397 -8.70559 22169 ft 337 kts 213°
2026-05-07 18:38 39.49397 -8.72124 21883 ft 335 kts 213°
2026-05-07 18:39 39.47406 -8.73682 21602 ft 334 kts 213°
2026-05-07 18:39 39.45426 -8.75233 21318 ft 332 kts 213°
2026-05-07 18:39 39.43450 -8.76780 21035 ft 331 kts 213°
2026-05-07 18:39 39.41482 -8.78315 20753 ft 329 kts 212°
2026-05-07 18:40 39.39630 -8.80021 20473 ft 326 kts 223°
2026-05-07 18:40 39.38088 -8.82153 20201 ft 325 kts 229°
2026-05-07 18:40 39.36606 -8.84345 19925 ft 323 kts 229°
2026-05-07 18:40 39.35122 -8.86527 19650 ft 322 kts 229°
2026-05-07 18:41 39.33645 -8.88695 19371 ft 321 kts 229°
2026-05-07 18:41 39.32173 -8.90855 19103 ft 320 kts 229°
2026-05-07 18:41 39.30708 -8.93007 18834 ft 319 kts 229°
2026-05-07 18:41 39.29247 -8.95152 18566 ft 317 kts 229°
2026-05-07 18:42 39.27792 -8.97291 18290 ft 316 kts 229°
2026-05-07 18:42 39.26344 -8.99414 18026 ft 315 kts 228°
2026-05-07 18:42 39.24899 -9.01530 17759 ft 314 kts 228°
2026-05-07 18:42 39.23457 -9.03640 17495 ft 313 kts 228°
2026-05-07 18:43 39.22019 -9.05740 17231 ft 311 kts 228°
2026-05-07 18:43 39.20591 -9.07822 16973 ft 310 kts 227°
2026-05-07 18:43 39.19163 -9.09899 16712 ft 309 kts 227°
2026-05-07 18:43 39.17741 -9.11970 16451 ft 308 kts 227°
2026-05-07 18:44 39.16340 -9.14006 16179 ft 307 kts 227°
2026-05-07 18:44 39.14927 -9.16060 15937 ft 306 kts 227°
2026-05-07 18:44 39.13522 -9.18105 15681 ft 304 kts 227°
2026-05-07 18:44 39.12124 -9.20138 15423 ft 303 kts 227°
2026-05-07 18:45 39.10733 -9.22161 15166 ft 302 kts 227°
2026-05-07 18:45 39.09343 -9.24179 14912 ft 300 kts 227°
2026-05-07 18:45 39.07959 -9.26188 14657 ft 299 kts 227°
2026-05-07 18:45 39.06580 -9.28186 14405 ft 298 kts 225°
2026-05-07 18:46 39.04972 -9.29827 14166 ft 294 kts 206°
2026-05-07 18:46 39.03114 -9.30922 13939 ft 294 kts 203°
2026-05-07 18:46 39.01244 -9.31982 13682 ft 293 kts 203°
2026-05-07 18:46 38.99380 -9.33030 13430 ft 292 kts 202°
2026-05-07 18:47 38.97523 -9.34071 13183 ft 291 kts 202°
2026-05-07 18:47 38.95672 -9.35107 12930 ft 290 kts 202°
2026-05-07 18:47 38.93828 -9.36137 12683 ft 288 kts 202°
2026-05-07 18:47 38.91992 -9.37167 12429 ft 287 kts 202°
2026-05-07 18:48 38.90165 -9.38193 12181 ft 286 kts 202°
2026-05-07 18:48 38.88345 -9.39217 11929 ft 285 kts 202°
2026-05-07 18:48 38.86529 -9.40239 11674 ft 284 kts 202°
2026-05-07 18:48 38.84719 -9.41255 11430 ft 284 kts 202°
2026-05-07 18:49 38.82913 -9.42264 11174 ft 283 kts 202°
2026-05-07 18:49 38.81123 -9.43262 10952 ft 277 kts 202°
2026-05-07 18:49 38.79395 -9.44228 10900 ft 265 kts 202°
2026-05-07 18:49 38.77739 -9.45155 10849 ft 254 kts 203°
2026-05-07 18:50 38.76129 -9.46057 10629 ft 251 kts 202°
2026-05-07 18:50 38.74535 -9.46951 10382 ft 249 kts 202°
2026-05-07 18:50 38.72954 -9.47837 10132 ft 247 kts 202°
2026-05-07 18:50 38.71383 -9.48717 9875 ft 246 kts 202°
2026-05-07 18:51 38.69817 -9.49592 9585 ft 246 kts 203°
2026-05-07 18:51 38.68249 -9.50468 9236 ft 246 kts 202°
2026-05-07 18:51 38.66674 -9.51344 8892 ft 248 kts 202°
2026-05-07 18:51 38.65085 -9.52226 8544 ft 250 kts 203°
2026-05-07 18:52 38.63484 -9.53116 8195 ft 252 kts 203°
2026-05-07 18:52 38.61881 -9.54008 7955 ft 249 kts 203°
2026-05-07 18:52 38.60320 -9.54842 7936 ft 240 kts 197°
2026-05-07 18:52 38.58669 -9.55142 7942 ft 241 kts 178°
2026-05-07 18:53 38.57010 -9.54810 7947 ft 242 kts 169°
2026-05-07 18:53 38.55355 -9.54386 7947 ft 242 kts 169°
2026-05-07 18:53 38.53701 -9.53964 7944 ft 242 kts 170°
2026-05-07 18:53 38.52049 -9.53546 7942 ft 242 kts 170°
2026-05-07 18:54 38.50400 -9.53098 7946 ft 243 kts 164°
2026-05-07 18:54 38.48866 -9.52193 7949 ft 244 kts 148°
2026-05-07 18:54 38.47451 -9.50983 7945 ft 245 kts 148°
2026-05-07 18:54 38.46036 -9.49778 7943 ft 245 kts 148°
2026-05-07 18:55 38.44617 -9.48573 7952 ft 245 kts 148°
2026-05-07 18:55 38.43200 -9.47368 7971 ft 245 kts 148°
2026-05-07 18:55 38.41834 -9.46068 7943 ft 246 kts 137°
2026-05-07 18:55 38.40772 -9.44351 7944 ft 248 kts 126°
2026-05-07 18:56 38.39813 -9.42521 7943 ft 248 kts 126°
2026-05-07 18:56 38.38849 -9.40695 7943 ft 248 kts 126°
2026-05-07 18:56 38.37883 -9.38868 7943 ft 249 kts 126°
2026-05-07 18:56 38.36920 -9.37040 7943 ft 248 kts 125°
2026-05-07 18:57 38.36166 -9.35058 7941 ft 250 kts 108°
2026-05-07 18:57 38.35791 -9.32885 7937 ft 252 kts 103°
2026-05-07 18:57 38.35448 -9.30696 7934 ft 252 kts 103°
2026-05-07 18:57 38.35103 -9.28508 7934 ft 252 kts 103°
2026-05-07 18:58 38.34756 -9.26321 7945 ft 252 kts 103°
2026-05-07 18:58 38.34458 -9.24122 7947 ft 253 kts 95°
2026-05-07 18:58 38.34584 -9.21888 7936 ft 255 kts 78°
2026-05-07 18:58 38.35294 -9.19831 7936 ft 256 kts 53°
2026-05-07 18:59 38.36625 -9.18345 7943 ft 257 kts 26°
2026-05-07 18:59 38.38336 -9.17765 7946 ft 256 kts 359°
2026-05-07 18:59 38.40094 -9.18106 7834 ft 258 kts 346°
2026-05-07 18:59 38.41835 -9.18614 7567 ft 256 kts 346°
2026-05-07 19:00 38.43577 -9.19124 7223 ft 257 kts 345°
2026-05-07 19:00 38.45326 -9.19638 6878 ft 259 kts 345°
2026-05-07 19:00 38.47057 -9.20145 6527 ft 251 kts 345°
2026-05-07 19:00 38.48724 -9.20629 6230 ft 240 kts 345°
2026-05-07 19:01 38.50299 -9.21086 5929 ft 229 kts 345°
2026-05-07 19:01 38.51823 -9.21526 5635 ft 222 kts 345°
2026-05-07 19:01 38.53327 -9.21961 5341 ft 221 kts 345°
2026-05-07 19:01 38.54814 -9.22393 5028 ft 216 kts 345°
2026-05-07 19:02 38.56266 -9.22814 4621 ft 214 kts 344°
2026-05-07 19:02 38.57723 -9.23237 4147 ft 214 kts 344°
2026-05-07 19:02 38.59163 -9.23438 3938 ft 203 kts
2026-05-07 19:02 38.60507 -9.22993 3725 ft 200 kts 20°
2026-05-07 19:03 38.61786 -9.22310 3475 ft 199 kts 19°
2026-05-07 19:03 38.63056 -9.21636 3216 ft 197 kts 19°
2026-05-07 19:03 38.64314 -9.20967 2977 ft 195 kts 19°
2026-05-07 19:03 38.65538 -9.20314 2692 ft 187 kts 19°
2026-05-07 19:04 38.66704 -9.19692 2454 ft 176 kts 19°
2026-05-07 19:04 38.67773 -9.19123 2251 ft 158 kts 19°
2026-05-07 19:04 38.68746 -9.18605 2043 ft 149 kts 19°
2026-05-07 19:04 38.69694 -9.18099 1841 ft 148 kts 18°
2026-05-07 19:05 38.70636 -9.17597 1648 ft 146 kts 18°
2026-05-07 19:05 38.71569 -9.17100 1455 ft 145 kts 19°
2026-05-07 19:05 38.72494 -9.16606 1259 ft 143 kts 19°
2026-05-07 19:05 38.73415 -9.16116 1064 ft 143 kts 19°
2026-05-07 19:06 38.74332 -9.15626 873 ft 143 kts 19°
2026-05-07 19:06 38.76189 -9.14616 466 ft 145 kts 20°
2026-05-07 19:06 38.77114 -9.14141 359 ft 133 kts 21°
2026-05-07 19:07 38.77728 -9.13807 362 ft 53 kts 23°
2026-05-07 19:07 38.78006 -9.13661 365 ft 42 kts 22°
2026-05-07 19:07 38.78250 -9.13510 367 ft 33 kts 37°
2026-05-07 19:07 38.78363 -9.13363 365 ft 15 kts 52°
2026-05-07 19:08 38.78350 -9.13266 360 ft 13 kts 158°
2026-05-07 19:08 38.78293 -9.13279 362 ft 2 kts 202°
2026-05-07 19:08 38.78272 -9.13291 365 ft 5 kts 202°
2026-05-07 19:08 38.78232 -9.13311 358 ft 8 kts 202°
2026-05-07 19:09 38.78174 -9.13341 358 ft 10 kts 201°
2026-05-07 19:09 38.78116 -9.13372 361 ft 7 kts 204°
2026-05-07 19:09 38.78065 -9.13401 360 ft 9 kts 202°
2026-05-07 19:09 38.77990 -9.13409 360 ft 14 kts 168°
2026-05-07 19:10 38.77881 -9.13378 349 ft 14 kts 168°
2026-05-07 19:10 38.77780 -9.13351 350 ft 15 kts 169°
2026-05-07 19:10 38.77742 -9.13262 335 ft 17 kts 80°
2026-05-07 19:10 38.77758 -9.13160 334 ft 7 kts 78°
2026-05-07 19:11 38.77766 -9.13094 334 ft 7 kts 96°
2026-05-07 19:11 38.77739 -9.13096 336 ft 5 kts 202°
2026-05-07 19:11 38.77708 -9.13103 332 ft 4 kts 187°
2026-05-07 19:11 38.77686 -9.13107 336 ft 3 kts 187°
2026-05-07 19:12 38.77683 -9.13107 336 ft 0 kts 187°